Regional Weather Roundup
Issued by NWS

Home | Current Version | Previous Version | Graphics & Text | Print | Product List | Glossary On
Versions: 1 2 3 4 5 6 7 8 9 10 11 12 13 14 15 16 17 18 19 20 21 22 23 24 25 26 27 28 29 30 31 32 33 34 35 36 37 38 39 40 41 42 43 44 45 46 47 48 49 50
000
ASUS43 KIND 280009
RWRIN

WEATHER ROUNDUP FOR INDIANA
NATIONAL WEATHER SERVICE INDIANAPOLIS IN
700 PM EST TUE JAN 27 2015

NOTE: "FAIR" INDICATES FEW OR NO CLOUDS BELOW 12,000 FEET WITH NO
SIGNIFICANT WEATHER AND/OR OBSTRUCTIONS TO VISIBILITY.

* - STATION DOES NOT REPORT WEATHER SUCH AS PRECIPITATION OR FOG.

+ - STATION NOT QUALITY CONTROLLED BY THE NATIONAL WEATHER SERVICE.
    USE DATA WITH CAUTION...ESPECIALLY DEWPOINT AND RELATIVE
    HUMIDITY OBSERVATIONS.

INZ001>003-010>013-019-020-280100-
NORTHWEST INDIANA

CITY           SKY/WX    TMP DP  RH WIND       PRES   REMARKS
GARY /AIRPORT/ MOCLDY    28  16  59 N12       30.24R WCI  18
KNOX *+        CLEAR     22   4  45 N7        30.21R WCI  14
LA PORTE +     MOCLDY    24  15  69 N6        30.22R WCI  16
6HR MIN TEMP:  24; 6HR MAX TEMP:  32;

MICHIGAN CITY+ CLEAR     25  10  54 N3        30.24R
MONTICELLO +   CLEAR     22  16  77 NW3       30.21R
RENSSELAER +   CLEAR     27  19  74 NW5       30.23R WCI  21
VALPARAISO     CLEAR     24  15  68 N5        30.23R WCI  18
6HR MIN TEMP:  24; 6HR MAX TEMP:  31;


$$

LMZ046-743>745-280100-
SOUTHERN LAKE MICHIGAN

STATION/POSITION TIME  TEMP WIND        PRES
                       AIR  DIR/SP/G
                 (UTC) (F)  (DEG/KT/KT) (MB)
MICHIGAN CITY    0000   27  350/ 12/ 14   N/A

$$

INZ004-005-014>016-021>024-280100-
NORTH CENTRAL INDIANA

CITY           SKY/WX    TMP DP  RH WIND       PRES   REMARKS
ELKHART        CLEAR     25   5  42 CALM      30.21R
GOSHEN         CLEAR     22  10  60 N6        30.19R WCI  14
6HR MIN TEMP:  22; 6HR MAX TEMP:  28;

LOGANSPORT +   CLEAR     19  16  86 CALM      30.21R
PERU/GRISSOM   CLEAR     23  12  64 NW1       30.19R
6HR MIN TEMP:  18; 6HR MAX TEMP:  26;

ROCHESTER +    CLEAR     27  14  59 CALM      30.21R
SOUTH BEND     CLEAR     23  11  60 N6        30.22R WCI  16
6HR MIN TEMP:  22; 6HR MAX TEMP:  30;

WARSAW +       CLEAR     23  10  58 CALM      30.19S

$$

INZ006>009-017-018-025>027-280100-
NORTHEAST INDIANA

CITY           SKY/WX    TMP DP  RH WIND       PRES   REMARKS
ANGOLA *+      CLEAR     19  10  68 CALM      30.17R
AUBURN +       CLEAR     23  10  58 CALM      30.19R
FORT WAYNE     CLEAR     21  10  62 N5        30.20R WCI  15
6HR MIN TEMP:  20; 6HR MAX TEMP:  27;

HUNTINGTON +   CLEAR     20   6  53 CALM      30.19R
6HR MIN TEMP:  20; 6HR MAX TEMP:  25;


$$

INZ028-029-035-036-043>045-051>053-280100-
WEST CENTRAL INDIANA

CITY           SKY/WX    TMP DP  RH WIND       PRES   REMARKS
CRAWFORDSVL +  CLEAR     23   6  48 N5        30.21R WCI  17
GREENCASTLE +  CLEAR     27  10  50 N5        30.19S WCI  21
LAFAYETTE      CLEAR     24  14  65 W3        30.22R
6HR MIN TEMP:  24; 6HR MAX TEMP:  29;

TERRE HAUTE    PTCLDY    28  24  85 N3        30.22R
6HR MIN TEMP:  28; 6HR MAX TEMP:  31;


$$

INZ030>032-037>040-046>048-054>057-064-065-280100-
CENTRAL INDIANA

CITY           SKY/WX    TMP DP  RH WIND       PRES   REMARKS
CP ATTERBURY + CLEAR     27  16  63 CALM      30.20R
COLUMBUS       CLEAR     27  19  74 CALM      30.19R
GREENWOOD *+   CLEAR     28   9  43 N5        30.19  WCI  23
INDIANAPOLIS   CLEAR     23  12  62 N8        30.19R WCI  14
6HR MIN TEMP:  23; 6HR MAX TEMP:  29;

-EAGLE CREEK     N/A     25  12  58 MISG      30.19R
6HR MIN TEMP:  25; 6HR MAX TEMP:  31;

KOKOMO *+      CLEAR     21  10  63 W3        30.20R
MARION +       CLEAR     21  14  73 NW3       30.19S
MT COMFORT *+  CLEAR     25  10  54 N7        30.19R WCI  17
SHELBYVILLE    CLEAR     27  15  61 N5        30.19R WCI  22
6HR MIN TEMP:  27; 6HR MAX TEMP:  32;

ZIONSVILLE +   CLEAR     25  13  62 N5        30.20R WCI  19
6HR MIN TEMP:  25; 6HR MAX TEMP:  30;


$$

INZ033-034-041-042-049-050-058-059-280100-
EAST CENTRAL INDIANA

CITY           SKY/WX    TMP DP  RH WIND       PRES   REMARKS
MUNCIE         CLEAR     20  11  68 CALM      30.18R
6HR MIN TEMP:  18; 6HR MAX TEMP:  26;


$$

INZ060-061-067>069-081>083-085>088-280100-
SOUTHWEST INDIANA

CITY           SKY/WX    TMP DP  RH WIND       PRES   REMARKS
EVANSVILLE     CLOUDY    35  29  78 N3        30.23R
6HR MIN TEMP:  35; 6HR MAX TEMP:  36;

HUNTINGBURG *+ CLOUDY    32  27  80 N5        30.21R WCI  27
6HR MIN TEMP:  32; 6HR MAX TEMP:  34;

WASHINGTON +   CLOUDY    32  28  84 N5        30.21R WCI  27
6HR MIN TEMP:  32; 6HR MAX TEMP:  32;


$$

INZ062-063-066-070>080-084-089>092-280100-
SOUTH CENTRAL AND SOUTHEAST INDIANA

CITY           SKY/WX    TMP DP  RH WIND       PRES   REMARKS
BLOOMINGTON    CLEAR     28  21  75 CALM      30.18R
6HR MIN TEMP:  28; 6HR MAX TEMP:  31;


$$




USA.gov is the U.S. government's official web portal to all federal, state and local government web resources and services.